| time (UTC) | temp F | wind direction | speed MPH | gust MPH | rain 1hr in | rain 24hr in | rain mn in | humidity % | barometer mb |
| 20260506031603 | 68 | 0 | 0.0 | 4.0 | 0.00 | 0.00 | 0.00 | 74 | 1008.3 |
| 20260506031055 | 69 | 44 | 0.0 | 2.0 | 0.00 | 0.00 | 0.00 | 74 | 1008.0 |
| 20260506030554 | 69 | 0 | 0.0 | 3.0 | 0.00 | 0.00 | 0.00 | 74 | 1007.8 |
| 20260506030100 | 69 | 5 | 0.0 | 3.0 | 0.00 | 0.00 | 0.00 | 74 | 1007.7 |
| 20260506025556 | 69 | 0 | 0.0 | 2.0 | 0.00 | 0.00 | 0.00 | 75 | 1007.7 |
| 20260506025054 | 70 | 296 | 0.0 | 4.0 | 0.00 | 0.00 | 0.00 | 74 | 1007.3 |
| 20260506024600 | 70 | 0 | 0.0 | 4.0 | 0.00 | 0.00 | 0.00 | 74 | 1007.2 |
| 20260506024054 | 70 | 40 | 0.0 | 2.0 | 0.00 | 0.00 | 0.00 | 73 | 1007.4 |
| 20260506023555 | 71 | 0 | 0.0 | 3.0 | 0.00 | 0.00 | 0.00 | 72 | 1007.5 |
| 20260506023055 | 71 | 13 | 0.0 | 3.0 | 0.00 | 0.00 | 0.00 | 72 | 1007.2 |
| 20260506022555 | 72 | 0 | 0.0 | 3.0 | 0.00 | 0.00 | 0.00 | 71 | 1007.1 |
| 20260506022054 | 72 | 0 | 0.0 | 3.0 | 0.00 | 0.00 | 0.00 | 71 | 1007.1 |
| 20260506021555 | 72 | 178 | 0.0 | 3.0 | 0.00 | 0.00 | 0.00 | 71 | 1006.8 |
| 20260506021056 | 72 | 0 | 0.0 | 5.0 | 0.00 | 0.00 | 0.00 | 71 | 1006.8 |
| 20260506020553 | 72 | 0 | 0.0 | 5.0 | 0.00 | 0.00 | 0.00 | 71 | 1006.7 |
| 20260506020107 | 72 | 38 | 1.0 | 5.0 | 0.00 | 0.00 | 0.00 | 71 | 1006.5 |
| 20260506015555 | 73 | 0 | 0.0 | 1.0 | 0.00 | 0.00 | 0.00 | 71 | 1006.5 |
| 20260506015055 | 73 | 0 | 0.0 | 2.0 | 0.00 | 0.00 | 0.00 | 71 | 1006.2 |
| 20260506014611 | 72 | 71 | 0.0 | 2.0 | 0.00 | 0.00 | 0.00 | 71 | 1006.3 |
| 20260506014054 | 73 | 0 | 0.0 | 2.0 | 0.00 | 0.00 | 0.00 | 71 | 1005.9 |
| 20260506013554 | 73 | 0 | 0.0 | 3.0 | 0.00 | 0.00 | 0.00 | 71 | 1005.7 |
| 20260506013055 | 73 | 0 | 0.0 | 3.0 | 0.00 | 0.00 | 0.00 | 70 | 1005.6 |
| 20260506012554 | 73 | 0 | 0.0 | 3.0 | 0.00 | 0.00 | 0.00 | 70 | 1005.4 |
| 20260506012055 | 73 | 0 | 0.0 | 2.0 | 0.00 | 0.00 | 0.00 | 70 | 1005.4 |
| 20260506011617 | 74 | 0 | 0.0 | 3.0 | 0.00 | 0.00 | 0.00 | 69 | 1005.2 |
| 20260506011055 | 74 | 0 | 0.0 | 3.0 | 0.00 | 0.00 | 0.00 | 69 | 1005.3 |
| 20260506010557 | 75 | 277 | 0.0 | 2.0 | 0.00 | 0.00 | 0.00 | 69 | 1005.1 |
| 20260506010054 | 75 | 0 | 0.0 | 2.0 | 0.00 | 0.00 | 0.00 | 69 | 1005.1 |
| 20260506005555 | 76 | 0 | 0.0 | 2.0 | 0.00 | 0.00 | 0.00 | 68 | 1005.2 |
| 20260506005054 | 76 | 0 | 0.0 | 2.0 | 0.00 | 0.00 | 0.00 | 68 | 1005.3 |
| 20260506004603 | 76 | 189 | 0.0 | 2.0 | 0.00 | 0.00 | 0.00 | 67 | 1005.1 |
| 20260506004054 | 77 | 18 | 0.0 | 4.0 | 0.00 | 0.00 | 0.00 | 66 | 1004.9 |
| 20260506003554 | 77 | 0 | 0.0 | 4.0 | 0.00 | 0.00 | 0.00 | 66 | 1004.6 |
| 20260506003056 | 78 | 0 | 0.0 | 4.0 | 0.00 | 0.00 | 0.00 | 66 | 1004.6 |
| 20260506002554 | 78 | 0 | 0.0 | 3.0 | 0.00 | 0.00 | 0.00 | 66 | 1004.6 |
| 20260506002054 | 79 | 0 | 0.0 | 3.0 | 0.00 | 0.00 | 0.00 | 66 | 1004.6 |
| 20260506001556 | 79 | 0 | 0.0 | 3.0 | 0.00 | 0.00 | 0.00 | 66 | 1004.4 |
| 20260506001054 | 80 | 84 | 0.0 | 3.0 | 0.00 | 0.00 | 0.00 | 65 | 1004.4 |
| 20260506000554 | 82 | 0 | 0.0 | 4.0 | 0.00 | 0.00 | 0.00 | 65 | 1004.5 |
| 20260506000117 | 82 | 340 | 0.0 | 4.0 | 0.00 | 0.00 | 0.00 | 63 | 1004.3 |
| 20260505235555 | 83 | 27 | 0.0 | 2.0 | 0.00 | 0.00 | 0.00 | 62 | 1004.2 |
| 20260505235055 | 84 | 302 | 0.0 | 3.0 | 0.00 | 0.00 | 0.00 | 61 | 1004.2 |
| 20260505234555 | 84 | 0 | 0.0 | 3.0 | 0.00 | 0.00 | 0.00 | 60 | 1003.8 |
| 20260505234055 | 85 | 51 | 0.0 | 3.0 | 0.00 | 0.00 | 0.00 | 58 | 1003.7 |
| 20260505233555 | 87 | 243 | 0.0 | 3.0 | 0.00 | 0.00 | 0.00 | 55 | 1003.5 |
| 20260505233057 | 87 | 0 | 0.0 | 1.0 | 0.00 | 0.00 | 0.00 | 57 | 1003.4 |
| 20260505232554 | 88 | 0 | 0.0 | 2.0 | 0.00 | 0.00 | 0.00 | 55 | 1003.2 |
| 20260505232055 | 89 | 165 | 0.0 | 3.0 | 0.00 | 0.00 | 0.00 | 54 | 1003.1 |
| 20260505231611 | 90 | 0 | 0.0 | 3.0 | 0.00 | 0.00 | 0.00 | 50 | 1003.1 |
| 20260505231054 | 90 | 215 | 0.0 | 2.0 | 0.00 | 0.00 | 0.00 | 49 | 1003.2 |
| 20260505230554 | 90 | 0 | 0.0 | 2.0 | 0.00 | 0.00 | 0.00 | 50 | 1003.2 |
| 20260505230107 | 90 | 0 | 0.0 | 2.0 | 0.00 | 0.00 | 0.00 | 50 | 1003.1 |
| 20260505225556 | 90 | 0 | 0.0 | 2.0 | 0.00 | 0.00 | 0.00 | 51 | 1003.0 |
| 20260505225054 | 90 | 0 | 0.0 | 1.0 | 0.00 | 0.00 | 0.00 | 51 | 1003.2 |
| 20260505224558 | 90 | 0 | 0.0 | 1.0 | 0.00 | 0.00 | 0.00 | 49 | 1003.2 |
| 20260505224054 | 90 | 0 | 0.0 | 1.0 | 0.00 | 0.00 | 0.00 | 51 | 1003.2 |
| 20260505223558 | 91 | 29 | 0.0 | 1.0 | 0.00 | 0.00 | 0.00 | 50 | 1003.2 |
| 20260505223101 | 91 | 0 | 0.0 | 2.0 | 0.00 | 0.00 | 0.00 | 47 | 1003.3 |
| 20260505222554 | 91 | 0 | 0.0 | 2.0 | 0.00 | 0.00 | 0.00 | 46 | 1003.1 |
| 20260505222054 | 91 | 66 | 0.0 | 2.0 | 0.00 | 0.00 | 0.00 | 46 | 1003.1 |
| 20260505221601 | 92 | 200 | 0.0 | 2.0 | 0.00 | 0.00 | 0.00 | 46 | 1003.1 |
| 20260505221055 | 91 | 0 | 0.0 | 2.0 | 0.00 | 0.00 | 0.00 | 47 | 1003.1 |
| 20260505220555 | 91 | 0 | 0.0 | 2.0 | 0.00 | 0.00 | 0.00 | 46 | 1002.9 |
| 20260505220058 | 92 | 0 | 0.0 | 2.0 | 0.00 | 0.00 | 0.00 | 48 | 1003.2 |
| 20260505215555 | 91 | 46 | 0.0 | 2.0 | 0.00 | 0.00 | 0.00 | 49 | 1003.1 |
| 20260505215057 | 91 | 0 | 0.0 | 2.0 | 0.00 | 0.00 | 0.00 | 46 | 1002.9 |
| 20260505214556 | 92 | 56 | 0.0 | 3.0 | 0.00 | 0.00 | 0.00 | 46 | 1003.1 |
| 20260505214100 | 93 | 22 | 0.0 | 3.0 | 0.00 | 0.00 | 0.00 | 49 | 1003.2 |
| 20260505213558 | 92 | 35 | 0.0 | 2.0 | 0.00 | 0.00 | 0.00 | 50 | 1003.2 |
| 20260505213057 | 93 | 0 | 0.0 | 2.0 | 0.00 | 0.00 | 0.00 | 46 | 1003.0 |
| 20260505212559 | 93 | 0 | 0.0 | 4.0 | 0.00 | 0.00 | 0.00 | 49 | 1003.3 |
| 20260505212056 | 92 | 0 | 0.0 | 4.0 | 0.00 | 0.00 | 0.00 | 47 | 1003.4 |
| 20260505211558 | 92 | 0 | 0.0 | 4.0 | 0.00 | 0.00 | 0.00 | 51 | 1003.3 |
| 20260505211056 | 92 | 0 | 0.0 | 3.0 | 0.00 | 0.00 | 0.00 | 48 | 1003.2 |
| 20260505210557 | 93 | 68 | 0.0 | 4.0 | 0.00 | 0.00 | 0.00 | 49 | 1003.3 |
| 20260505210054 | 93 | 99 | 0.0 | 4.0 | 0.00 | 0.00 | 0.00 | 48 | 1003.5 |
| 20260505205557 | 93 | 34 | 0.0 | 4.0 | 0.00 | 0.00 | 0.00 | 46 | 1003.5 |
| 20260505205056 | 93 | 0 | 0.0 | 4.0 | 0.00 | 0.00 | 0.00 | 47 | 1003.5 |
| 20260505204600 | 93 | 45 | 0.0 | 3.0 | 0.00 | 0.00 | 0.00 | 48 | 1003.8 |
| 20260505204057 | 93 | 97 | 0.0 | 3.0 | 0.00 | 0.00 | 0.00 | 47 | 1003.9 |
| 20260505203556 | 93 | 0 | 0.0 | 3.0 | 0.00 | 0.00 | 0.00 | 49 | 1003.9 |
| 20260505203102 | 92 | 79 | 0.0 | 4.0 | 0.00 | 0.00 | 0.00 | 49 | 1003.9 |
| 20260505202557 | 92 | 82 | 0.0 | 4.0 | 0.00 | 0.00 | 0.00 | 49 | 1003.7 |
| 20260505202056 | 92 | 54 | 0.0 | 3.0 | 0.00 | 0.00 | 0.00 | 52 | 1003.8 |
| 20260505201557 | 92 | 113 | 0.0 | 3.0 | 0.00 | 0.00 | 0.00 | 52 | 1004.1 |
| 20260505201057 | 92 | 44 | 0.0 | 3.0 | 0.00 | 0.00 | 0.00 | 50 | 1004.2 |
| 20260505200557 | 93 | 16 | 0.0 | 3.0 | 0.00 | 0.00 | 0.00 | 51 | 1004.2 |
| 20260505200056 | 93 | 76 | 0.0 | 3.0 | 0.00 | 0.00 | 0.00 | 49 | 1004.3 |
| 20260505195558 | 92 | 0 | 0.0 | 3.0 | 0.00 | 0.00 | 0.00 | 51 | 1004.3 |
| 20260505195056 | 92 | 0 | 0.0 | 3.0 | 0.00 | 0.00 | 0.00 | 51 | 1004.4 |
| 20260505194617 | 92 | 49 | 0.0 | 3.0 | 0.00 | 0.00 | 0.00 | 50 | 1004.2 |
| 20260505194056 | 91 | 78 | 0.0 | 3.0 | 0.00 | 0.00 | 0.00 | 57 | 1004.3 |
| 20260505193557 | 92 | 72 | 0.0 | 4.0 | 0.00 | 0.00 | 0.00 | 53 | 1004.3 |
| 20260505193059 | 92 | 0 | 0.0 | 4.0 | 0.00 | 0.00 | 0.00 | 57 | 1004.4 |
| 20260505192556 | 91 | 58 | 1.0 | 5.0 | 0.00 | 0.00 | 0.00 | 54 | 1004.4 |
| 20260505192056 | 91 | 86 | 1.0 | 5.0 | 0.00 | 0.00 | 0.00 | 53 | 1004.5 |
| 20260505191608 | 91 | 0 | 1.0 | 4.0 | 0.00 | 0.00 | 0.00 | 53 | 1004.7 |
| 20260505191057 | 91 | 0 | 1.0 | 4.0 | 0.00 | 0.00 | 0.00 | 55 | 1004.6 |
| 20260505190556 | 91 | 60 | 0.0 | 4.0 | 0.00 | 0.00 | 0.00 | 57 | 1004.7 |
| 20260505190057 | 90 | 90 | 0.0 | 3.0 | 0.00 | 0.00 | 0.00 | 59 | 1004.6 |
| 20260505185556 | 90 | 89 | 0.0 | 2.0 | 0.00 | 0.00 | 0.00 | 58 | 1004.7 |
| 20260505185057 | 90 | 46 | 0.0 | 2.0 | 0.00 | 0.00 | 0.00 | 60 | 1004.6 |
| 20260505184556 | 90 | 0 | 0.0 | 3.0 | 0.00 | 0.00 | 0.00 | 58 | 1004.8 |
| 20260505184057 | 89 | 0 | 0.0 | 4.0 | 0.00 | 0.00 | 0.00 | 62 | 1004.8 |
| 20260505183556 | 89 | 0 | 1.0 | 4.0 | 0.00 | 0.00 | 0.00 | 58 | 1004.9 |
| 20260505183100 | 89 | 0 | 0.0 | 4.0 | 0.00 | 0.00 | 0.00 | 59 | 1005.0 |
| 20260505182557 | 89 | 0 | 0.0 | 4.0 | 0.00 | 0.00 | 0.00 | 63 | 1005.0 |
| 20260505182100 | 88 | 50 | 0.0 | 4.0 | 0.00 | 0.00 | 0.00 | 63 | 1005.2 |
| 20260505181556 | 88 | 0 | 1.0 | 4.0 | 0.00 | 0.00 | 0.00 | 62 | 1005.3 |
| 20260505181100 | 89 | 0 | 0.0 | 4.0 | 0.00 | 0.00 | 0.00 | 62 | 1005.1 |
| 20260505180556 | 88 | 64 | 0.0 | 5.0 | 0.00 | 0.00 | 0.00 | 62 | 1005.1 |
| 20260505180100 | 87 | 346 | 0.0 | 5.0 | 0.00 | 0.00 | 0.00 | 64 | 1005.3 |
| 20260505175556 | 88 | 352 | 0.0 | 5.0 | 0.00 | 0.00 | 0.00 | 63 | 1005.3 |
| 20260505175056 | 88 | 61 | 1.0 | 5.0 | 0.00 | 0.00 | 0.00 | 63 | 1005.4 |
| 20260505174558 | 88 | 79 | 0.0 | 4.0 | 0.00 | 0.00 | 0.00 | 66 | 1005.3 |
| 20260505174056 | 88 | 49 | 1.0 | 4.0 | 0.00 | 0.00 | 0.00 | 65 | 1005.3 |
| 20260505173556 | 87 | 326 | 1.0 | 4.0 | 0.00 | 0.00 | 0.00 | 65 | 1005.4 |
| 20260505173113 | 87 | 109 | 1.0 | 2.0 | 0.00 | 0.00 | 0.00 | 66 | 1005.5 |
| 20260505172556 | 86 | 60 | 0.0 | 6.0 | 0.00 | 0.00 | 0.00 | 69 | 1005.5 |
| 20260505172056 | 84 | 0 | 1.0 | 6.0 | 0.00 | 0.00 | 0.00 | 69 | 1005.6 |
| 20260505171618 | 84 | 85 | 0.0 | 6.0 | 0.00 | 0.00 | 0.00 | 68 | 1005.4 |
| 20260505171056 | 84 | 78 | 1.0 | 6.0 | 0.00 | 0.00 | 0.00 | 69 | 1005.3 |
| 20260505170556 | 84 | 152 | 1.0 | 5.0 | 0.00 | 0.00 | 0.00 | 68 | 1005.3 |
| 20260505170055 | 84 | 98 | 1.0 | 7.0 | 0.00 | 0.00 | 0.00 | 68 | 1005.2 |
| 20260505165557 | 84 | 32 | 0.0 | 7.0 | 0.00 | 0.00 | 0.00 | 69 | 1005.3 |
| 20260505165056 | 83 | 156 | 1.0 | 6.0 | 0.00 | 0.00 | 0.00 | 69 | 1005.4 |
| 20260505164604 | 83 | 81 | 1.0 | 5.0 | 0.00 | 0.00 | 0.00 | 69 | 1005.3 |
| 20260505164056 | 83 | 164 | 0.0 | 5.0 | 0.00 | 0.00 | 0.00 | 70 | 1005.2 |
| 20260505163556 | 83 | 69 | 0.0 | 5.0 | 0.00 | 0.00 | 0.00 | 70 | 1005.3 |
| 20260505163055 | 82 | 30 | 0.0 | 5.0 | 0.00 | 0.00 | 0.00 | 71 | 1005.4 |
| 20260505162556 | 82 | 44 | 0.0 | 5.0 | 0.00 | 0.00 | 0.00 | 71 | 1005.3 |
| 20260505162057 | 82 | 59 | 1.0 | 5.0 | 0.00 | 0.00 | 0.00 | 71 | 1005.1 |
| 20260505161557 | 82 | 45 | 1.0 | 6.0 | 0.00 | 0.00 | 0.00 | 72 | 1005.1 |
| 20260505161057 | 82 | 108 | 2.0 | 6.0 | 0.00 | 0.00 | 0.00 | 72 | 1005.1 |
| 20260505160555 | 82 | 190 | 0.0 | 7.0 | 0.00 | 0.00 | 0.00 | 73 | 1005.2 |
| 20260505153054 | 80 | 72 | 1.0 | 4.0 | 0.00 | 0.00 | 0.00 | 73 | 1005.4 |
| 20260505152555 | 81 | 63 | 1.0 | 6.0 | 0.00 | 0.00 | 0.00 | 76 | 1005.4 |
| 20260505152054 | 80 | 0 | 1.0 | 6.0 | 0.00 | 0.00 | 0.00 | 75 | 1005.5 |
| 20260505151555 | 81 | 151 | 1.0 | 5.0 | 0.00 | 0.00 | 0.00 | 75 | 1005.4 |
| 20260505151055 | 80 | 252 | 0.0 | 6.0 | 0.00 | 0.00 | 0.00 | 76 | 1005.6 |
| 20260505150555 | 79 | 135 | 1.0 | 6.0 | 0.00 | 0.00 | 0.00 | 76 | 1005.6 |
| 20260505150110 | 78 | 182 | 1.0 | 5.0 | 0.00 | 0.00 | 0.00 | 77 | 1005.6 |
| 20260505140555 | 74 | 24 | 1.0 | 6.0 | 0.00 | 0.00 | 0.00 | 82 | 1005.4 |
| 20260505130111 | 71 | 198 | 0.0 | 3.0 | 0.00 | 0.00 | 0.00 | 88 | 1005.2 |
| 20260505124611 | 70 | 0 | 0.0 | 3.0 | 0.00 | 0.00 | 0.00 | 88 | 1005.1 |
| 20260505124057 | 70 | 0 | 0.0 | 2.0 | 0.00 | 0.00 | 0.00 | 89 | 1005.1 |
| 20260505123557 | 70 | 0 | 0.0 | 2.0 | 0.00 | 0.00 | 0.00 | 88 | 1005.0 |
| 20260505123116 | 70 | 0 | 0.0 | 2.0 | 0.00 | 0.00 | 0.00 | 88 | 1004.7 |
| 20260505122554 | 70 | 53 | 0.0 | 2.0 | 0.00 | 0.00 | 0.00 | 89 | 1004.7 |
| 20260505122055 | 70 | 0 | 0.0 | 4.0 | 0.00 | 0.00 | 0.00 | 88 | 1004.5 |
| 20260505121623 | 70 | 0 | 1.0 | 4.0 | 0.00 | 0.00 | 0.00 | 88 | 1004.5 |
| 20260505121055 | 70 | 0 | 1.0 | 4.0 | 0.00 | 0.00 | 0.00 | 89 | 1004.3 |
| 20260505120555 | 69 | 0 | 0.0 | 5.0 | 0.00 | 0.00 | 0.00 | 89 | 1004.2 |
| 20260505120058 | 69 | 180 | 1.0 | 5.0 | 0.00 | 0.00 | 0.00 | 89 | 1004.1 |
| 20260505115554 | 69 | 0 | 0.0 | 4.0 | 0.00 | 0.00 | 0.00 | 89 | 1004.1 |
| 20260505115054 | 69 | 0 | 1.0 | 4.0 | 0.00 | 0.00 | 0.00 | 89 | 1004.1 |
| 20260505114555 | 69 | 166 | 0.0 | 5.0 | 0.00 | 0.00 | 0.00 | 89 | 1003.9 |
| 20260505114054 | 69 | 36 | 1.0 | 8.0 | 0.00 | 0.00 | 0.00 | 89 | 1003.9 |
| 20260505113554 | 69 | 81 | 1.0 | 8.0 | 0.00 | 0.00 | 0.00 | 89 | 1003.7 |
| 20260505113103 | 69 | 48 | 1.0 | 8.0 | 0.00 | 0.00 | 0.00 | 89 | 1003.7 |
| 20260505112555 | 69 | 44 | 0.0 | 4.0 | 0.00 | 0.00 | 0.00 | 89 | 1003.8 |
| 20260505112056 | 69 | 223 | 1.0 | 5.0 | 0.00 | 0.00 | 0.00 | 89 | 1004.0 |
| 20260505111556 | 69 | 80 | 0.0 | 5.0 | 0.00 | 0.00 | 0.00 | 89 | 1004.0 |
| 20260505111057 | 69 | 78 | 0.0 | 4.0 | 0.00 | 0.00 | 0.00 | 89 | 1003.9 |
| 20260505110557 | 69 | 46 | 0.0 | 4.0 | 0.00 | 0.00 | 0.00 | 89 | 1004.0 |
| 20260505102056 | 69 | 189 | 0.0 | 4.0 | 0.00 | 0.00 | 0.00 | 87 | 1003.9 |
| 20260505101559 | 69 | 32 | 1.0 | 5.0 | 0.00 | 0.00 | 0.00 | 87 | 1003.8 |
| 20260505101056 | 70 | 0 | 1.0 | 5.0 | 0.00 | 0.00 | 0.00 | 87 | 1003.9 |
| 20260505100555 | 70 | 65 | 1.0 | 6.0 | 0.00 | 0.00 | 0.00 | 87 | 1003.8 |
| 20260505100136 | 70 | 202 | 1.0 | 6.0 | 0.00 | 0.00 | 0.00 | 87 | 1004.0 |
| 20260505095558 | 70 | 73 | 1.0 | 5.0 | 0.00 | 0.00 | 0.00 | 87 | 1003.9 |
| 20260505095055 | 70 | 53 | 1.0 | 4.0 | 0.00 | 0.00 | 0.00 | 87 | 1004.0 |
| 20260505094556 | 70 | 64 | 1.0 | 4.0 | 0.00 | 0.00 | 0.00 | 87 | 1004.0 |
| 20260505094054 | 70 | 217 | 1.0 | 4.0 | 0.00 | 0.00 | 0.00 | 87 | 1004.0 |
| 20260505093555 | 70 | 260 | 0.0 | 4.0 | 0.00 | 0.00 | 0.00 | 87 | 1004.0 |
| 20260505093058 | 70 | 165 | 1.0 | 4.0 | 0.00 | 0.00 | 0.00 | 87 | 1004.0 |
| 20260505092558 | 70 | 0 | 0.0 | 4.0 | 0.00 | 0.00 | 0.00 | 86 | 1004.2 |
| 20260505092056 | 70 | 0 | 0.0 | 8.0 | 0.00 | 0.00 | 0.00 | 86 | 1004.3 |
| 20260505091616 | 70 | 9 | 1.0 | 8.0 | 0.00 | 0.00 | 0.00 | 86 | 1004.3 |
| 20260505091055 | 70 | 180 | 1.0 | 6.0 | 0.00 | 0.00 | 0.00 | 86 | 1004.3 |
| 20260505090555 | 70 | 76 | 1.0 | 6.0 | 0.00 | 0.00 | 0.00 | 86 | 1004.2 |
| 20260505085556 | 70 | 0 | 0.0 | 4.0 | 0.00 | 0.00 | 0.00 | 86 | 1004.4 |
| 20260505085059 | 70 | 78 | 1.0 | 4.0 | 0.00 | 0.00 | 0.00 | 85 | 1004.5 |
| 20260505084557 | 70 | 69 | 0.0 | 5.0 | 0.00 | 0.00 | 0.00 | 85 | 1004.6 |
| 20260505084057 | 70 | 205 | 1.0 | 5.0 | 0.00 | 0.00 | 0.00 | 85 | 1004.6 |
| 20260505083557 | 70 | 0 | 1.0 | 5.0 | 0.00 | 0.00 | 0.00 | 85 | 1004.5 |
| 20260505083056 | 70 | 82 | 1.0 | 8.0 | 0.00 | 0.00 | 0.00 | 84 | 1004.5 |
| 20260505082555 | 70 | 0 | 1.0 | 8.0 | 0.00 | 0.00 | 0.00 | 84 | 1004.3 |
| 20260505082055 | 71 | 47 | 1.0 | 6.0 | 0.00 | 0.00 | 0.00 | 84 | 1004.4 |
| 20260505081554 | 71 | 213 | 1.0 | 6.0 | 0.00 | 0.00 | 0.00 | 83 | 1004.5 |
| 20260505081055 | 71 | 71 | 1.0 | 6.0 | 0.00 | 0.00 | 0.00 | 83 | 1004.4 |
| 20260505080556 | 71 | 58 | 1.0 | 7.0 | 0.00 | 0.00 | 0.00 | 83 | 1004.4 |
| 20260505080056 | 71 | 47 | 1.0 | 7.0 | 0.00 | 0.00 | 0.00 | 82 | 1004.5 |
| 20260505075552 | 71 | 0 | 1.0 | 6.0 | 0.00 | 0.00 | 0.00 | 82 | 1004.4 |
| 20260505075055 | 72 | 0 | 2.0 | 6.0 | 0.00 | 0.00 | 0.00 | 82 | 1004.6 |
| 20260505074555 | 72 | 13 | 1.0 | 6.0 | 0.00 | 0.00 | 0.00 | 82 | 1004.4 |
| 20260505074058 | 72 | 201 | 1.0 | 7.0 | 0.00 | 0.00 | 0.00 | 81 | 1004.5 |
| 20260505073554 | 72 | 306 | 2.0 | 7.0 | 0.00 | 0.00 | 0.00 | 81 | 1004.7 |
| 20260505073100 | 72 | 47 | 1.0 | 6.0 | 0.00 | 0.00 | 0.00 | 81 | 1004.8 |
| 20260505072555 | 72 | 268 | 1.0 | 6.0 | 0.00 | 0.00 | 0.00 | 80 | 1004.9 |
| 20260505072056 | 72 | 44 | 2.0 | 11.0 | 0.00 | 0.00 | 0.00 | 80 | 1004.9 |
| 20260505071553 | 72 | 101 | 3.0 | 11.0 | 0.00 | 0.00 | 0.00 | 80 | 1004.8 |
| 20260505071055 | 72 | 328 | 1.0 | 8.0 | 0.00 | 0.00 | 0.00 | 80 | 1004.9 |
| 20260505070555 | 72 | 47 | 1.0 | 8.0 | 0.00 | 0.00 | 0.00 | 79 | 1005.0 |
| 20260505070058 | 73 | 189 | 1.0 | 8.0 | 0.00 | 0.00 | 0.00 | 79 | 1004.9 |
| 20260505065555 | 73 | 127 | 1.0 | 8.0 | 0.00 | 0.00 | 0.00 | 79 | 1005.1 |
| 20260505065055 | 73 | 54 | 2.0 | 8.0 | 0.00 | 0.00 | 0.00 | 78 | 1005.2 |
| 20260505064602 | 73 | 180 | 2.0 | 6.0 | 0.00 | 0.00 | 0.00 | 78 | 1005.2 |
| 20260505064055 | 73 | 38 | 1.0 | 6.0 | 0.00 | 0.00 | 0.00 | 77 | 1005.3 |
| 20260505063554 | 73 | 175 | 1.0 | 7.0 | 0.00 | 0.00 | 0.00 | 77 | 1005.4 |
| 20260505063055 | 73 | 207 | 2.0 | 8.0 | 0.00 | 0.00 | 0.00 | 77 | 1005.4 |
| 20260505062555 | 73 | 165 | 1.0 | 8.0 | 0.00 | 0.00 | 0.00 | 76 | 1005.4 |
| 20260505062055 | 73 | 160 | 1.0 | 7.0 | 0.00 | 0.00 | 0.00 | 76 | 1005.5 |
| 20260505061556 | 74 | 175 | 1.0 | 6.0 | 0.00 | 0.00 | 0.00 | 76 | 1005.5 |
| 20260505061055 | 74 | 126 | 2.0 | 6.0 | 0.00 | 0.00 | 0.00 | 75 | 1005.6 |
| 20260505060559 | 74 | 315 | 1.0 | 6.0 | 0.00 | 0.00 | 0.00 | 75 | 1005.5 |
| 20260505060059 | 74 | 80 | 2.0 | 6.0 | 0.00 | 0.00 | 0.00 | 75 | 1005.6 |
| 20260505055555 | 74 | 22 | 1.0 | 5.0 | 0.00 | 0.00 | 0.00 | 75 | 1005.5 |
| 20260505055055 | 74 | 75 | 1.0 | 9.0 | 0.00 | 0.00 | 0.00 | 75 | 1005.5 |
| 20260505054618 | 74 | 146 | 1.0 | 9.0 | 0.00 | 0.00 | 0.00 | 75 | 1005.6 |
| 20260505054058 | 74 | 128 | 1.0 | 9.0 | 0.00 | 0.00 | 0.00 | 75 | 1005.5 |
| 20260505053555 | 74 | 71 | 1.0 | 6.0 | 0.00 | 0.00 | 0.00 | 74 | 1005.7 |
| 20260505053056 | 74 | 236 | 1.0 | 7.0 | 0.00 | 0.00 | 0.00 | 74 | 1005.5 |
| 20260505052555 | 74 | 85 | 2.0 | 7.0 | 0.00 | 0.00 | 0.00 | 74 | 1005.6 |
| 20260505052054 | 74 | 186 | 1.0 | 6.0 | 0.00 | 0.00 | 0.00 | 74 | 1005.4 |
| 20260505051557 | 75 | 5 | 1.0 | 8.0 | 0.00 | 0.00 | 0.00 | 74 | 1005.5 |
| 20260505051056 | 75 | 242 | 1.0 | 8.0 | 0.00 | 0.00 | 0.00 | 74 | 1005.6 |
| 20260505050556 | 75 | 170 | 2.0 | 6.0 | 0.00 | 0.00 | 0.00 | 74 | 1005.6 |
| 20260505041605 | 75 | 99 | 2.0 | 7.0 | 0.00 | 0.00 | 0.00 | 74 | 1005.8 |
| 20260505041054 | 75 | 54 | 1.0 | 7.0 | 0.00 | 0.00 | 0.00 | 75 | 1005.8 |
| 20260505040556 | 74 | 205 | 1.0 | 5.0 | 0.00 | 0.00 | 0.00 | 75 | 1005.8 |
| 20260505040100 | 74 | 55 | 1.0 | 6.0 | 0.00 | 0.00 | 0.00 | 75 | 1005.8 |
| 20260505035555 | 74 | 194 | 0.0 | 7.0 | 0.00 | 0.00 | 0.00 | 75 | 1005.9 |
| 20260505035055 | 74 | 80 | 2.0 | 7.0 | 0.00 | 0.00 | 0.00 | 75 | 1005.8 |
| 20260505034554 | 74 | 66 | 1.0 | 6.0 | 0.00 | 0.00 | 0.00 | 75 | 1005.8 |
| 20260505034056 | 74 | 81 | 1.0 | 5.0 | 0.00 | 0.00 | 0.00 | 75 | 1005.8 |
| 20260505033556 | 74 | 0 | 2.0 | 5.0 | 0.00 | 0.00 | 0.00 | 75 | 1005.8 |
| 20260505033056 | 75 | 61 | 2.0 | 5.0 | 0.00 | 0.00 | 0.00 | 75 | 1005.8 |
| 20260505032555 | 75 | 86 | 1.0 | 5.0 | 0.00 | 0.00 | 0.00 | 75 | 1005.9 |
| 20260505032054 | 75 | 0 | 1.0 | 5.0 | 0.00 | 0.00 | 0.00 | 74 | 1005.8 |